STARLINK-33654 (63466 NORAD) Tracking and Keplerian Element Data

This shows tracking and keplerian element data for the satellite.

Feedback or suggestion? Click here.




ElementValue
Catalog63466
NameSTARLINK-33654
Epoch Orbit4079
Epoch Day354.03140336
Epoch Year2025
RAAN349.6749
Inclination43.0025
Eccentricity0.0001172
Argument of Perigee234.4428
Mean Anonmoly125.6314
Mean Motion15.27586377
Decay Rate0.0002602
L11 63466U 25070G 25354.03140336 .00026020 00000+0 95157-3 0 9997
L22 63466 43.0025 349.6749 0001172 234.4428 125.6314 15.27586377 40794



Live tracking and technical data element details for STARLINK-33654 (NORAD 63466). STARLINK-33654 can be tracked NOW for your location showing map with azimuth and elevation plus other details from your city location.







IsCatalogInMostPopularTable: catalog: 63466, numindb: 2
Update: records affected: 1



GetName: 63466 STARLINK-33654

Hit Count: updated at: Sun, 08 Feb 2026 16:51:14 GMT